Regional Weather Roundup
Issued by NWS Sioux Falls, SD

Home | Current Version | Previous Version | Text Only | Print | Product List | Glossary On
Versions: 1 2 3 4 5 6 7 8 9 10 11 12 13 14 15 16 17 18 19 20 21 22 23 24 25 26 27 28 29 30 31 32 33 34 35 36 37 38 39 40 41 42 43 44 45 46 47 48 49 50
000
ASUS43 KFSD 250802
RWRFSD

WEATHER ROUNDUP FOR SE SOUTH DAKOTA/SW MINNESOTA/NW IOWA
NATIONAL WEATHER SERVICE SIOUX FALLS SD
200 AM CST SUN JAN 25 2015

NOTE: "FAIR" INDICATES FEW OR NO CLOUDS BELOW 12,000 FEET WITH NO
SIGNIFICANT WEATHER AND OR OBSTRUCTIONS TO VISIBILITY.


SDZ038>040-050-052>070-250900-
SOUTHEAST SOUTH DAKOTA

CITY           SKY/WX    TMP DP  RH WIND       PRES   REMARKS
CHAMBERLAIN    NOT AVBL
HURON          CLOUDY    32  30  92 N16       29.83R WCI  21
MADISON        LGT SNOW  32  32 100 N18       29.74R WCI  20
MITCHELL       CLOUDY    33  31  92 N20       29.82R WCI  21
SIOUX FALLS    LGT SNOW  33  31  92 N16       29.72R FOG     WCI  23
WINNER         CLOUDY    40  35  83 NW25G32   29.87R
YANKTON        CLOUDY    34  30  86 NW24G30   29.76R WCI  21
$$

MNZ071-072-080-081-089-090-097-098-250900-
SOUTHWEST MINNESOTA

CITY           SKY/WX    TMP DP  RH WIND       PRES   REMARKS
FAIRMONT       CLOUDY    34  30  86 N13       29.63R WCI  25
JACKSON        MIX PCPN  34  32  93 N10       29.65R WCI  26
LUVERNE        LGT SNOW  34  32  93 N13G20    29.69R WCI  25
MARSHALL       CLOUDY    32  28  86 N13       29.74R WCI  22
MONTEVIDEO     LGT SNOW  32  32 100 NE9       29.77R WCI  24
PIPESTONE      LGT SNOW  34  30  86 N15       29.69R WCI  24
REDWOOD FALLS  LGT SNOW  34  32  92 NE9G16    29.72R FOG     WCI  27
TRACY          MIX PCPN  33  32  98 N13       29.71R WCI  24
WINDOM         LGT SNOW  34  34 100 N14       29.66R WCI  24
WORTHINGTON    CLOUDY    32  30  93 N17       29.67R WCI  21
$$

IAZ001>003-012>014-020>022-031-032-NEZ013-014-SDZ071-250900-
NORTHWEST IOWA

CITY           SKY/WX    TMP DP  RH WIND       PRES   REMARKS
ESTHERVILLE    LGT SNOW  32  32 100 N13       29.62R FOG     WCI  22
SIOUX CITY     FLURRIES  35  33  92 N18G30    29.68R WCI  24
SPENCER        LGT SNOW  34  31  88 N13       29.63R FOG     WCI  25
$$

ABBREVIATIONS USED IN REMARKS
   TC - TEMPERATURE IN CELSIUS
  WCI - WIND CHILL INDEX
   HX - HEAT INDEX
  VSB - VISIBILITY




USA.gov is the U.S. government's official web portal to all federal, state and local government web resources and services.